GW4605 Weather Reports


time (UTC)temp
C
wind
direction
speed
KPH
gust
KPH
rain 1hr
cm
rain 24hr
cm
rain mn
cm
humidity
%
barometer
mb
20260507012653 11 95 0.0 0.0 0.00 1.91 1.91 95 1014.4
20260507012148 11 95 0.0 0.0 0.00 1.91 1.91 95 1014.1
20260507011646 11 122 0.0 0.0 0.00 1.91 1.91 95 1014.1
20260507011142 11 165 0.0 0.0 0.00 1.91 1.91 95 1014.3
20260507010637 11 165 0.0 0.0 0.00 1.91 1.91 94 1014.0
20260507010133 12 229 0.0 0.0 0.00 1.91 1.91 94 1013.8
20260507005631 12 46 0.0 0.0 0.00 1.91 1.91 94 1014.3
20260507005127 12 46 0.0 0.0 0.00 1.91 1.91 94 1014.4
20260507004624 12 46 0.0 0.0 0.00 1.91 1.91 93 1014.3
20260507004122 12 46 0.0 0.0 0.00 1.91 1.91 93 1014.0
20260507003617 12 44 0.0 0.0 0.00 1.91 1.91 93 1013.9
20260507003112 12 240 0.0 0.0 0.00 1.91 1.91 93 1013.5
20260507002609 12 240 0.0 0.0 0.00 1.91 1.91 93 1013.7
20260507002105 12 240 0.0 0.0 0.00 1.91 1.91 92 1013.6
20260507001602 12 240 0.0 0.0 0.00 1.91 1.91 92 1013.7
20260507001059 12 240 0.0 0.0 0.00 1.91 1.91 92 1013.8
20260507000555 12 240 0.0 0.0 0.00 1.91 1.91 92 1013.8
20260507000051 12 240 0.0 0.0 0.00 1.91 1.91 91 1013.7
20260506235549 12 240 0.0 0.0 0.00 1.91 1.91 91 1013.7
20260506235044 12 240 0.0 0.0 0.00 1.91 1.91 91 1013.5
20260506234542 12 240 0.0 0.0 0.00 1.91 1.91 91 1013.8
20260506234039 13 211 0.0 0.0 0.00 1.91 1.91 90 1013.6
20260506233536 13 211 0.0 0.0 0.00 1.91 1.91 90 1013.9
20260506233033 13 211 0.0 0.0 0.00 1.91 1.91 89 1014.1
20260506232529 13 211 0.0 0.0 0.00 1.91 1.91 89 1014.0
20260506232024 13 211 0.0 0.0 0.00 1.91 1.91 89 1013.9
20260506231522 13 211 0.0 0.0 0.00 1.91 1.91 87 1013.8
20260506231020 13 212 0.0 0.0 0.00 1.91 1.91 85 1013.8
20260506230516 14 212 0.0 0.0 0.00 1.91 1.91 84 1013.8
20260506230014 13 209 0.0 0.0 0.00 1.91 1.91 81 1013.8
20260506225510 13 208 0.0 0.0 0.00 1.91 1.91 80 1013.9
20260506225007 14 106 1.6 1.6 0.00 1.91 1.91 79 1013.7
20260506224503 14 127 0.0 0.0 0.00 1.91 1.91 79 1013.8
20260506224000 14 139 0.0 1.6 0.00 1.91 1.91 79 1013.4
20260506223456 14 70 0.0 0.0 0.00 1.91 1.91 78 1014.0
20260506222953 14 89 0.0 0.0 0.00 1.91 1.91 80 1013.8
20260506222450 14 115 0.0 1.6 0.00 1.91 1.91 80 1013.6
20260506221946 14 115 0.0 1.6 0.00 1.91 1.91 80 1013.6
20260506221443 14 161 0.0 1.6 0.00 1.91 1.91 80 1013.5
20260506220941 14 205 1.6 3.2 0.00 1.91 1.91 80 1013.7
20260506220437 13 200 0.0 1.6 0.00 1.91 1.91 80 1013.3
20260506215933 13 198 0.0 3.2 0.00 1.91 1.91 80 1013.5
20260506215430 13 157 0.0 1.6 0.00 1.91 1.91 81 1013.4
20260506214925 13 207 0.0 3.2 0.00 1.91 1.91 80 1013.5
20260506214423 13 96 0.0 4.8 0.00 1.91 1.91 80 1013.5
20260506213920 13 172 0.0 6.4 0.00 1.91 1.91 79 1013.5
20260506213418 14 201 1.6 3.2 0.00 1.91 1.91 81 1013.3
20260506212915 14 143 0.0 4.8 0.00 1.91 1.91 79 1013.4
20260506212411 14 144 3.2 6.4 0.00 1.91 1.91 78 1013.2
20260506211906 14 75 0.0 3.2 0.00 1.91 1.91 75 1013.1
20260506211402 14 67 3.2 6.4 0.00 1.91 1.91 77 1013.1
20260506210859 14 65 4.8 4.8 0.00 1.91 1.91 77 1012.9
20260506210356 14 69 1.6 3.2 0.00 1.91 1.91 77 1013.0
20260506205853 14 40 0.0 6.4 0.00 1.91 1.91 77 1013.3
20260506205349 14 81 1.6 3.2 0.00 1.91 1.91 78 1013.0
20260506204846 14 206 3.2 3.2 0.00 1.91 1.91 80 1013.0
20260506204344 14 126 4.8 6.4 0.00 1.91 1.91 79 1013.0
20260506203841 15 72 4.8 6.4 0.00 1.91 1.91 78 1012.9
20260506203338 15 82 1.6 3.2 0.00 1.91 1.91 77 1012.7
20260506202835 14 218 3.2 6.4 0.00 1.91 1.91 79 1012.6
20260506202332 15 95 1.6 4.8 0.00 1.91 1.91 78 1012.8
20260506201828 15 59 0.0 3.2 0.00 1.91 1.91 79 1012.3
20260506201326 14 71 3.2 4.8 0.00 1.91 1.91 81 1012.7
20260506200822 14 108 3.2 4.8 0.00 1.91 1.91 80 1012.6
20260506200318 14 62 3.2 4.8 0.00 1.91 1.91 79 1012.7
20260506195814 14 73 3.2 4.8 0.00 1.91 1.91 80 1012.5
20260506195312 14 100 4.8 4.8 0.00 1.91 1.91 81 1012.7
20260506194809 14 128 1.6 4.8 0.00 1.91 1.91 82 1012.9
20260506194305 13 89 1.6 3.2 0.00 1.91 1.91 84 1012.6
20260506193803 13 98 1.6 1.6 0.00 1.91 1.91 84 1012.9
20260506193259 13 178 1.6 9.7 0.00 1.91 1.91 84 1013.0
20260506192756 13 158 1.6 4.8 0.00 1.91 1.91 83 1012.6
20260506192253 14 120 1.6 4.8 0.00 1.91 1.91 82 1012.7
20260506191750 14 107 1.6 3.2 0.00 1.91 1.91 82 1012.8
20260506191246 14 31 3.2 4.8 0.00 1.91 1.91 82 1012.8
20260506190743 14 127 3.2 6.4 0.00 1.91 1.91 82 1012.6
20260506190234 13 64 6.4 9.7 0.00 1.91 1.91 83 1012.5
20260506185732 13 115 3.2 6.4 0.00 1.91 1.91 84 1012.8
20260506185228 13 90 4.8 9.7 0.00 1.91 1.91 84 1012.8
20260506184725 13 48 4.8 9.7 0.00 1.91 1.91 82 1012.7
20260506184222 13 114 3.2 6.4 0.00 1.91 1.91 85 1012.6
20260506183719 13 127 4.8 6.4 0.00 1.91 1.91 85 1012.8
20260506183215 13 203 3.2 9.7 0.00 1.91 1.91 85 1013.0
20260506182712 13 117 3.2 9.7 0.00 1.91 1.91 85 1012.8
20260506182209 13 110 3.2 4.8 0.00 1.91 1.91 87 1013.1
20260506181707 12 69 4.8 14.5 0.00 1.91 1.91 88 1012.8
20260506181204 13 156 3.2 6.4 0.00 1.91 1.91 86 1013.1
20260506180702 13 60 6.4 9.7 0.00 1.91 1.91 86 1012.9
20260506180157 13 113 6.4 6.4 0.00 1.91 1.91 87 1013.0
20260506175654 12 79 6.4 9.7 0.00 1.91 1.91 88 1012.9
20260506175150 12 63 6.4 9.7 0.00 1.91 1.91 88 1012.7
20260506174648 12 82 4.8 11.3 0.00 1.91 1.91 88 1012.9
20260506174145 12 124 3.2 6.4 0.00 1.91 1.91 89 1012.8
20260506173643 12 128 4.8 6.4 0.00 1.91 1.91 90 1013.0
20260506173140 12 113 6.4 9.7 0.00 1.91 1.91 91 1012.9
20260506172637 12 74 6.4 9.7 0.00 1.91 1.91 91 1012.9
20260506172133 12 83 4.8 9.7 0.00 1.91 1.91 92 1012.9
20260506171630 11 68 4.8 4.8 0.00 1.91 1.91 94 1013.1
20260506171128 11 95 4.8 11.3 0.00 1.91 1.91 94 1012.9
20260506170626 11 140 6.4 12.9 0.00 1.91 1.91 95 1012.9
20260506170122 11 93 6.4 9.7 0.00 1.91 1.91 95 1012.9
20260506165621 11 88 9.7 12.9 0.00 1.91 1.91 95 1012.9
20260506165117 11 52 4.8 11.3 0.00 1.91 1.91 96 1012.8
20260506164614 11 92 9.7 12.9 0.00 1.91 1.91 96 1012.7
20260506164112 12 127 4.8 14.5 0.00 1.91 1.91 97 1012.8
20260506163608 11 19 6.4 9.7 0.00 1.91 1.91 98 1012.7
20260506163103 12 70 6.4 9.7 0.00 1.91 1.91 98 1012.8
20260506162559 11 58 6.4 9.7 0.00 1.91 1.91 98 1012.7
20260506162057 11 52 9.7 12.9 0.00 1.91 1.91 98 1012.7
20260506161554 12 62 4.8 6.4 0.00 1.91 1.91 98 1012.5
20260506161051 12 46 8.0 9.7 0.00 1.91 1.91 98 1012.4
20260506160549 12 72 6.4 11.3 0.00 1.91 1.91 98 1012.1
20260506160045 12 54 9.7 11.3 0.00 1.91 1.91 99 1012.1
20260506155544 12 62 8.0 9.7 0.00 1.91 1.91 99 1012.1
20260506153715 11 67 1.6 3.2 0.00 1.91 1.91 99 1011.7
20260506153213 11 67 1.6 3.2 0.00 1.91 1.91 99 1011.7
20260506152709 11 133 1.6 3.2 0.00 1.91 1.91 99 1011.8
20260506152207 11 93 3.2 4.8 0.00 1.91 1.91 99 1011.6
20260506151706 11 116 1.6 6.4 0.00 1.91 1.91 99 1011.5
20260506151202 11 116 1.6 6.4 0.00 1.91 1.91 99 1011.5
20260506150659 11 115 1.6 4.8 0.00 1.91 1.91 99 1011.6
20260506150156 11 126 1.6 4.8 0.00 1.91 1.91 99 1011.5
20260506145653 11 122 4.8 9.7 0.00 1.91 1.91 99 1011.4
20260506145149 11 114 8.0 9.7 0.00 1.91 1.91 99 1011.2
20260506144647 11 123 3.2 4.8 0.00 1.91 1.91 99 1011.3
20260506144144 12 108 6.4 9.7 0.00 1.91 1.91 99 1011.2
20260506143641 12 108 6.4 9.7 0.00 1.91 1.91 99 1011.2
20260506143139 12 69 4.8 11.3 0.00 1.91 1.91 99 1010.9
20260506142638 12 141 1.6 11.3 0.00 1.91 1.91 99 1010.8
20260506142135 12 106 8.0 20.9 0.18 1.91 1.91 99 1010.5
20260506141632 13 74 14.5 22.5 0.36 1.91 1.91 99 1010.4
20260506141131 15 58 6.4 9.7 0.18 1.88 1.88 99 1009.7
20260506140628 15 117 0.0 1.6 0.00 1.85 1.85 99 1009.5
20260506140125 15 6 0.0 1.6 0.00 1.85 1.85 99 1009.3
20260506135622 15 73 1.6 3.2 0.00 1.85 1.85 99 1009.4
20260506135118 15 45 3.2 3.2 0.00 1.85 1.85 99 1009.3
20260506134615 14 71 0.0 4.8 0.00 1.85 1.85 99 1009.3
20260506134110 14 46 1.6 3.2 0.00 1.85 1.85 99 1009.3
20260506133608 14 154 0.0 4.8 0.00 1.85 1.85 99 1009.2
20260506133105 15 50 1.6 3.2 0.00 1.85 1.85 99 1009.1
20260506132602 14 49 0.0 3.2 0.00 1.85 1.85 99 1009.0
20260506132059 14 16 0.0 3.2 0.13 1.85 1.85 99 1008.9
20260506131556 14 224 0.0 4.8 0.13 1.85 1.85 99 1009.1
20260506131052 14 53 0.0 0.0 0.00 1.83 1.83 99 1009.2
20260506130549 14 34 3.2 4.8 0.00 1.83 1.83 99 1009.2
20260506130047 14 252 1.6 1.6 0.00 1.83 1.83 99 1009.0
20260506125545 14 25 0.0 3.2 0.00 1.83 1.83 99 1009.0
20260506125043 14 283 1.6 1.6 0.00 1.83 1.83 99 1008.9
20260506124540 14 220 0.0 3.2 0.00 1.83 1.83 99 1009.0
20260506124038 14 163 0.0 3.2 0.00 1.83 1.83 99 1009.0
20260506123535 14 234 0.0 3.2 0.00 1.83 1.83 99 1008.9
20260506123034 14 250 1.6 1.6 0.00 1.83 1.83 99 1008.9
20260506122530 13 48 0.0 4.8 0.00 1.83 1.83 99 1008.8
20260506122028 13 52 3.2 3.2 0.00 1.83 1.83 99 1009.0
20260506121525 13 209 1.6 1.6 0.00 1.83 1.83 99 1009.0
20260506121021 13 186 0.0 3.2 0.00 1.83 1.83 99 1009.0
20260506120520 13 53 3.2 9.7 0.00 1.83 1.83 99 1009.1
20260506120017 13 76 0.0 1.6 0.00 1.83 1.83 99 1009.0
20260506115514 13 122 0.0 1.6 0.18 1.83 1.83 99 1008.9
20260506115013 13 185 0.0 1.6 0.18 1.83 1.83 99 1008.7
20260506114510 13 210 0.0 4.8 0.00 1.80 1.80 99 1008.8
20260506114008 13 228 0.0 4.8 0.00 1.80 1.80 99 1008.8
20260506113506 13 206 0.0 1.6 0.00 1.80 1.80 99 1008.9
20260506113003 13 178 0.0 1.6 0.00 1.80 1.80 99 1008.7
20260506112459 13 249 1.6 4.8 0.13 1.80 1.80 99 1008.6
20260506111956 13 46 0.0 0.0 0.13 1.80 1.80 99 1008.7
20260506111455 13 138 0.0 0.0 0.00 1.78 1.78 98 1008.5
20260506110951 13 176 0.0 0.0 0.18 1.78 1.78 98 1008.6
20260506110449 13 118 0.0 0.0 0.13 1.75 1.75 98 1008.7
20260506105945 13 217 0.0 1.6 0.30 1.75 1.75 98 1008.5
20260506105442 13 78 0.0 0.0 0.48 1.73 1.73 98 1008.4
20260506104939 13 123 0.0 1.6 0.43 1.70 1.70 98 1008.5
20260506104437 13 139 0.0 0.0 0.48 1.65 1.65 98 1008.5
20260506103935 13 77 0.0 1.6 0.30 1.60 1.60 98 1008.5
20260506103432 13 287 0.0 1.6 0.18 1.55 1.55 98 1008.5
20260506102929 13 159 0.0 1.6 0.13 1.52 1.52 98 1008.4
20260506102427 13 168 0.0 0.0 0.30 1.52 1.52 98 1008.5
20260506101924 13 98 0.0 0.0 0.48 1.50 1.50 98 1008.6
20260506101420 13 102 0.0 1.6 0.61 1.47 1.47 97 1008.5
20260506100918 13 48 0.0 1.6 0.43 1.42 1.42 97 1008.8
20260506100416 13 255 0.0 0.0 0.30 1.37 1.37 97 1008.6
20260506095914 13 255 1.6 1.6 0.48 1.35 1.35 97 1008.6
20260506095412 13 60 1.6 1.6 0.48 1.32 1.32 97 1008.9
20260506094908 13 58 0.0 1.6 0.61 1.27 1.27 97 1008.5
20260506094407 13 150 0.0 0.0 0.43 1.24 1.24 97 1008.7
20260506093904 13 150 0.0 0.0 0.18 1.17 1.17 97 1008.8
20260506093402 13 147 0.0 0.0 0.18 1.17 1.17 97 1008.7
20260506092859 13 78 0.0 1.6 0.30 1.14 1.14 97 1008.7
20260506092357 13 255 1.6 3.2 0.48 1.12 1.12 96 1008.7
20260506091853 13 269 0.0 1.6 0.61 1.09 1.09 96 1008.7
20260506091352 13 67 0.0 0.0 0.61 1.04 1.04 96 1008.8
20260506090848 13 82 0.0 0.0 0.48 0.99 0.99 96 1008.8
20260506090346 13 48 0.0 4.8 0.79 0.94 0.94 96 1008.9
20260506085842 13 56 1.6 3.2 0.89 0.91 0.91 96 1008.8
20260506085338 13 36 0.0 4.8 0.43 0.81 0.81 96 1008.6
20260506084835 13 55 0.0 4.8 0.43 0.76 0.76 96 1008.8
20260506084332 13 102 0.0 0.0 0.79 0.71 0.71 95 1008.6
20260506083829 13 247 1.6 3.2 0.97 0.69 0.69 95 1009.0
20260506083326 13 249 0.0 0.0 0.43 0.58 0.58 95 1009.1
20260506082824 13 51 0.0 3.2 0.43 0.53 0.53 95 1009.0
20260506082320 13 135 0.0 0.0 0.61 0.48 0.48 94 1009.2
20260506081816 14 183 0.0 0.0 0.79 0.43 0.43 94 1009.4
20260506081314 14 243 0.0 4.8 0.79 0.38 0.38 94 1009.1
20260506080811 14 107 0.0 0.0 0.71 0.30 0.30 93 1009.3
20260506080307 14 35 1.6 4.8 0.79 0.23 0.23 93 1009.3
20260506073246 15 73 0.0 0.0 0.00 0.03 0.03 88 1008.9
20260506072743 15 65 1.6 3.2 0.00 0.03 0.03 88 1008.9
20260506072241 15 225 1.6 1.6 0.00 0.03 0.03 89 1008.8
20260506071738 15 65 0.0 1.6 0.18 0.03 0.03 90 1008.8
20260506071236 15 99 0.0 0.0 0.18 0.03 0.03 92 1009.2
20260506070733 14 31 0.0 1.6 0.00 0.00 0.00 94 1008.8
20260506070230 13 92 0.0 4.8 0.00 0.00 0.00 95 1009.0
20260506062206 14 196 0.0 0.0 0.00 0.00 0.00 94 1008.5
20260506061656 14 196 0.0 0.0 0.00 0.00 0.00 94 1008.9
20260506061153 14 196 0.0 0.0 0.00 0.00 0.00 94 1008.7
20260506060653 14 196 0.0 0.0 0.00 0.00 0.00 94 1009.0
20260506060149 14 196 0.0 0.0 0.00 0.00 0.00 94 1009.0
20260506051121 15 67 0.0 0.0 0.00 0.00 0.00 90 1009.9
20260506050619 14 66 0.0 0.0 0.00 0.00 0.00 90 1009.8
20260506050116 15 65 0.0 0.0 0.00 0.00 0.00 90 1009.9
20260506045109 15 177 0.0 0.0 0.00 0.00 0.00 89 1009.9
20260506044607 14 72 0.0 0.0 0.00 0.00 0.00 90 1010.0
20260506044104 14 212 0.0 0.0 0.00 0.00 0.00 89 1010.2
20260506043601 14 213 0.0 0.0 0.00 0.00 0.00 89 1009.9
20260506043100 15 213 0.0 0.0 0.00 0.00 0.00 89 1009.8
20260506042558 14 213 0.0 0.0 0.00 0.00 0.00 89 1009.8
20260506042056 15 213 0.0 0.0 0.00 0.00 0.00 89 1009.9
20260506041554 15 213 0.0 0.0 0.00 0.00 0.00 89 1009.8
20260506041050 15 215 0.0 0.0 0.00 0.00 0.00 89 1009.8
20260506040549 15 210 0.0 0.0 0.00 0.00 0.00 88 1009.9
20260506040044 15 210 0.0 0.0 0.00 0.00 0.00 87 1010.0
20260506035541 15 210 0.0 0.0 0.00 0.00 0.00 86 1009.9
20260506035038 15 210 0.0 0.0 0.00 0.00 0.00 85 1010.0
20260506034535 15 256 0.0 0.0 0.00 0.00 0.00 84 1010.2
20260506034032 15 249 0.0 0.0 0.00 0.00 0.00 83 1010.2
20260506033529 16 57 0.0 1.6 0.00 0.00 0.00 82 1010.3
20260506033026 16 33 3.2 3.2 0.00 0.00 0.00 80 1009.9
20260506032524 16 74 0.0 1.6 0.00 0.00 0.00 77 1009.7
20260506032020 16 196 0.0 0.0 0.00 0.00 0.00 76 1009.8
20260506031518 16 195 1.6 3.2 0.00 0.00 0.00 77 1009.7
20260506031015 16 199 0.0 1.6 0.00 0.00 0.00 76 1010.2
20260506030513 17 318 0.0 1.6 0.00 0.00 0.00 67 1010.4
20260506030010 17 34 0.0 0.0 0.00 0.00 0.00 66 1010.4
20260506025506 17 26 0.0 0.0 0.00 0.00 0.00 66 1010.4
20260506025003 17 55 0.0 0.0 0.00 0.00 0.00 68 1010.5
20260506024459 17 32 0.0 0.0 0.00 0.00 0.00 67 1010.4
20260506023955 17 64 0.0 0.0 0.00 0.00 0.00 65 1010.3
20260506023452 17 37 3.2 3.2 0.00 0.00 0.00 67 1010.3
20260506022949 18 245 0.0 0.0 0.00 0.00 0.00 62 1010.0
20260506022447 18 263 3.2 4.8 0.00 0.00 0.00 63 1009.9
20260506021945 18 51 0.0 1.6 0.00 0.00 0.00 61 1010.2
20260506021442 18 74 0.0 0.0 0.00 0.00 0.00 57 1010.0
20260506020939 19 61 3.2 3.2 0.00 0.00 0.00 60 1010.3
20260506020436 19 228 1.6 1.6 0.00 0.00 0.00 53 1010.2
20260506015933 19 189 0.0 0.0 0.00 0.00 0.00 54 1010.2
20260506015431 19 74 0.0 0.0 0.00 0.00 0.00 51 1010.4
20260506014928 20 61 0.0 0.0 0.00 0.00 0.00 51 1010.2
20260506014425 20 61 0.0 0.0 0.00 0.00 0.00 50 1010.5
20260506013921 20 42 0.0 4.8 0.00 0.00 0.00 49 1010.3